星链-36258(STARLINK-36258)

导读

STARLINK-36258是美国于2025年12月15日发射的星链卫星,归属SpaceX星链项目。星链项目旨在构建全球卫星互联网星座,为全球偏远地区、海洋空域等提供高速低延迟互联服务,该卫星入轨后将融入现有星链网络,进一步补充星座规模,提升全球网络覆盖能力与服务稳定性。

基本信息
目录编号:
67104
目录名称:
STARLINK-36258
国际标识:
2025-299C
轨道中心:
EARTH
卫星名称:
星链-36258
卫星全名:
星链-36258(STARLINK-36258)
卫星状态:
在轨 (已飞行263 天)
发射日期:
2025-12-15 UTC
国别 :
美国 (US)
星等 :
--
轨道信息
数据来源 国际轨道数据
星历时间: 2026-09-04T09:30:26+0800
10小时前
查看轨道信息
半长轴: 6861.175km
偏心率: 0.0001143
轨道倾角: 43.000°
近地点辐角 240.012°
升交点赤经 241.843°
平近点角 120.062°
近地点: 482.253km
远地点: 483.823km
周期: 94.267分钟
每日圈数: 15.275839
详细信息
固有亮度:
5
最大亮度:
2.5
卫星平台:
Starlink V1.0
覆盖范围:
全球
运营商:
太空探索技术公司
运营商所在国:
美国
制造商(研发单位):
太空探索技术公司
制造商所在国:
美国
使用方式:
暂无
卫星简介
Starlink 计划是 SpaceX 推出的全球卫星互联网项目,通过发射低轨道卫星,为全球尤其是偏远地区提供高速、低延迟的互联网服务。自 2019 年起,Starlink 已部署数千颗卫星,旨在缩小全球数字鸿沟,推动互联网普及。该项目还为军事、航空等行业提供通信支持,带来广泛经济效益。
2D轨道图
3D轨道图
轨道高度分析图
轨道倾角分析图
轨道综合分析图
查看轨道综合分析图
交会数据列表
事件ID 空间交会对象 最接近时刻(TCA) 交会距离 交会风险概率(CRP) 交会风险指数(CRI) 操作
CDM_260906-183305-791706-710421
2026-09-06T
18:33:32+0000
0.325 km
远距离
3.824686E-4 高风险 0.87
CDM_260904-222705-714506-710422
2026-09-04T
22:27:52+0000
0.609 km
远距离
8.251476E-5 中风险 0.73
CDM_260827-184405-863306-710422
2026-08-27T
18:44:52+0000
0.951 km
远距离
2.065254E-5 中风险 0.61
CDM_260905-000205-714506-710422
2026-09-05T
00:02:02+0000
1.501 km
极远距离
4.283201E-6 低风险 0.48
CDM_260904-205305-714506-710422
2026-09-04T
20:53:43+0000
1.604 km
极远距离
3.481189E-6 低风险 0.46
CDM_260828-054905-393006-710421
2026-08-28T
05:49:04+0000
1.713 km
极远距离
2.773852E-6 低风险 0.44
CDM_260905-145605-714506-710421
2026-09-05T
14:56:30+0000
2.557 km
极远距离
1.145175E-6 低风险 0.36
CDM_260905-013605-714506-710421
2026-09-05T
01:36:11+0000
2.903 km
极远距离
9.577721E-7 极低风险 0.35
CDM_260904-191905-714506-710422
2026-09-04T
19:19:34+0000
2.940 km
极远距离
9.434155E-7 极低风险 0.34